Location: Ailly
(50.0793°N, 1.9944°E)
Time: 22:05:35
(UTC+00:00)

Nadezhda 3 Rocket - Pass Details

Date: 15 January 2026
Orbit: 956 x 997 km, 82.9° (Epoch: 18 February)

Event Time Altitude Azimuth Distance (km) Brightness Sun altitude
Rises 05:56:11 0° 348° (NNW) 3,672 6.8 -16.8°
Reaches altitude 10° 05:58:42 10° 346° (NNW) 2,727 6.1 -16.5°
Maximum altitude 06:04:52 65° 266° (W) 1,074 4.0 -15.5°
Drops below altitude 10° 06:11:03 10° 186° (S) 2,737 6.5 -14.5°
Sets 06:13:35 0° 184° (S) 3,686 7.2 -14.1°
